When you browse on this site, cookies collect data to enhance your experience and personalize the content and advertising you see.
Visit our Privacy Policy to learn more. By continuing to use the site, you agree to this use of cookies and data.
  • In United Kingdom
  • List of Countries
  • For 7 days
  • Water Temperature
  • Weather Map
  • Weather Widgets
  • user-avatar
    Login

    Hourly Weather Pyla

    Today, 19 October, Saturday

    Time Temperature Precipitation Wind Pressure Humidity
    00:00 +14°C° 0 mm 2 mps 732 mmHg 77%
    01:00 +14°C° 0 mm 1 mps 733 mmHg 78%
    02:00 +14°C° 0 mm 1 mps 733 mmHg 78%
    03:00 +14°C° 0 mm 1 mps 733 mmHg 79%
    04:00 +14°C° 0 mm 1 mps 733 mmHg 79%
    05:00 +13°C° 0 mm 1 mps 733 mmHg 80%
    06:00 +14°C° 0 mm 1 mps 733 mmHg 79%
    07:00 +14°C° 0 mm 1 mps 733 mmHg 78%
    08:00 +14°C° 0 mm 1 mps 733 mmHg 77%
    09:00 +16°C° 0 mm 2 mps 733 mmHg 70%
    10:00 +18°C° 0 mm 2 mps 734 mmHg 63%
    11:00 +20°C° 0 mm 3 mps 734 mmHg 56%
    12:00 +21°C° 0 mm 3 mps 734 mmHg 54%
    13:00 +21°C° 0 mm 3 mps 734 mmHg 51%
    14:00 +22°C° 0 mm 3 mps 733 mmHg 48%
    15:00 +21°C° 0 mm 3 mps 733 mmHg 53%
    16:00 +19°C° 0 mm 2 mps 733 mmHg 58%
    17:00 +18°C° 0 mm 2 mps 732 mmHg 62%
    18:00 +17°C° 0 mm 2 mps 733 mmHg 65%
    19:00 +16°C° 0 mm 2 mps 733 mmHg 68%
    20:00 +15°C° 0 mm 2 mps 733 mmHg 70%
    21:00 +15°C° 0 mm 2 mps 733 mmHg 72%
    22:00 +15°C° 0 mm 2 mps 733 mmHg 74%
    23:00 +14°C° 0 mm 1 mps 733 mmHg 75%

    Tomorrow, 20 October, Sunday

    Time Temperature Precipitation Wind Pressure Humidity
    00:00 +14°C° 0 mm 1 mps 733 mmHg 75%
    01:00 +14°C° 0 mm 2 mps 733 mmHg 75%
    02:00 +14°C° 0 mm 2 mps 734 mmHg 75%
    03:00 +14°C° 0 mm 2 mps 733 mmHg 76%
    04:00 +14°C° 0 mm 2 mps 733 mmHg 76%
    05:00 +13°C° 0 mm 2 mps 733 mmHg 76%
    06:00 +14°C° 0 mm 2 mps 734 mmHg 76%
    07:00 +14°C° 0 mm 2 mps 734 mmHg 75%
    08:00 +14°C° 0 mm 2 mps 734 mmHg 74%
    09:00 +17°C° 0 mm 2 mps 734 mmHg 66%
    10:00 +19°C° 0 mm 3 mps 734 mmHg 57%
    11:00 +22°C° 0 mm 3 mps 735 mmHg 49%
    12:00 +22°C° 0 mm 3 mps 735 mmHg 46%
    13:00 +24°C° 0 mm 3 mps 735 mmHg 44%
    14:00 +25°C° 0 mm 3 mps 734 mmHg 41%
    15:00 +22°C° 0 mm 3 mps 734 mmHg 46%
    16:00 +21°C° 0 mm 2 mps 734 mmHg 52%
    17:00 +20°C° 0 mm 1 mps 734 mmHg 57%
    18:00 +18°C° 0 mm 2 mps 734 mmHg 61%
    19:00 +17°C° 0 mm 2 mps 734 mmHg 65%
    20:00 +16°C° 0 mm 2 mps 735 mmHg 69%
    21:00 +16°C° 0 mm 2 mps 735 mmHg 70%
    22:00 +15°C° 0 mm 2 mps 735 mmHg 71%
    23:00 +15°C° 0 mm 2 mps 735 mmHg 72%

    Day after tomorrow, 21 October, Monday

    Time Temperature Precipitation Wind Pressure Humidity
    00:00 +15°C° 0 mm 2 mps 735 mmHg 72%
    01:00 +14°C° 0 mm 2 mps 735 mmHg 73%
    02:00 +14°C° 0 mm 2 mps 734 mmHg 73%
    03:00 +14°C° 0 mm 2 mps 734 mmHg 73%
    04:00 +14°C° 0 mm 2 mps 734 mmHg 73%
    05:00 +14°C° 0 mm 2 mps 734 mmHg 73%
    06:00 +14°C° 0 mm 2 mps 734 mmHg 72%
    07:00 +15°C° 0 mm 2 mps 735 mmHg 71%
    08:00 +15°C° 0 mm 2 mps 735 mmHg 70%
    09:00 +18°C° 0 mm 3 mps 735 mmHg 62%
    10:00 +20°C° 0 mm 3 mps 735 mmHg 54%
    11:00 +24°C° 0 mm 3 mps 735 mmHg 46%
    12:00 +25°C° 0 mm 3 mps 735 mmHg 43%
    13:00 +25°C° 0 mm 4 mps 735 mmHg 41%
    14:00 +26°C° 0 mm 4 mps 735 mmHg 38%
    15:00 +24°C° 0 mm 3 mps 735 mmHg 43%
    16:00 +22°C° 0 mm 3 mps 734 mmHg 48%
    17:00 +20°C° 0 mm 2 mps 734 mmHg 53%
    18:00 +19°C° 0 mm 2 mps 734 mmHg 56%
    19:00 +18°C° 0 mm 2 mps 735 mmHg 59%
    20:00 +18°C° 0 mm 1 mps 735 mmHg 62%
    21:00 +16°C° 0 mm 1 mps 735 mmHg 64%
    22:00 +16°C° 0 mm 1 mps 735 mmHg 65%
    23:00 +15°C° 0 mm 1 mps 735 mmHg 67%

    22 October, Tuesday

    Time Temperature Precipitation Wind Pressure Humidity
    00:00 +15°C° 0 mm 1 mps 735 mmHg 68%
    01:00 +15°C° 0 mm 1 mps 736 mmHg 69%
    02:00 +15°C° 0 mm 2 mps 736 mmHg 70%
    03:00 +14°C° 0 mm 2 mps 736 mmHg 70%
    04:00 +14°C° 0 mm 2 mps 736 mmHg 70%
    05:00 +14°C° 0 mm 2 mps 736 mmHg 70%
    06:00 +14°C° 0 mm 2 mps 736 mmHg 70%
    07:00 +15°C° 0 mm 1 mps 736 mmHg 69%
    08:00 +15°C° 0 mm 1 mps 736 mmHg 69%
    09:00 +18°C° 0 mm 1 mps 737 mmHg 62%
    10:00 +21°C° 0 mm 1 mps 737 mmHg 55%
    11:00 +23°C° 0 mm 1 mps 737 mmHg 48%
    12:00 +23°C° 0 mm 1 mps 737 mmHg 47%
    13:00 +24°C° 0 mm 1 mps 737 mmHg 46%
    14:00 +25°C° 0 mm 1 mps 737 mmHg 44%
    15:00 +23°C° 0 mm 1 mps 737 mmHg 52%
    16:00 +21°C° 0 mm 1 mps 737 mmHg 59%
    17:00 +19°C° 0 mm 1 mps 737 mmHg 66%
    18:00 +18°C° 0 mm 1 mps 737 mmHg 72%
    19:00 +16°C° 0 mm 1 mps 737 mmHg 78%
    20:00 +15°C° 0 mm 1 mps 737 mmHg 84%
    21:00 +14°C° 0 mm 1 mps 738 mmHg 86%
    22:00 +14°C° 0 mm 1 mps 738 mmHg 88%
    23:00 +14°C° 0 mm 1 mps 738 mmHg 89%

    23 October, Wednesday

    Time Temperature Precipitation Wind Pressure Humidity
    00:00 +12°C° 0 mm 0 mps 738 mmHg 90%
    01:00 +12°C° 0 mm 0 mps 737 mmHg 90%
    02:00 +12°C° 0 mm 0 mps 737 mmHg 90%
    03:00 +12°C° 0 mm 0 mps 737 mmHg 90%
    04:00 +11°C° 0 mm 0 mps 737 mmHg 90%
    05:00 +11°C° 0 mm 0 mps 737 mmHg 89%
    06:00 +12°C° 0 mm 1 mps 737 mmHg 88%
    07:00 +13°C° 0 mm 1 mps 737 mmHg 86%
    08:00 +13°C° 0 mm 1 mps 737 mmHg 85%
    09:00 +15°C° 0 mm 1 mps 737 mmHg 76%
    10:00 +18°C° 0 mm 1 mps 737 mmHg 67%
    11:00 +20°C° 0 mm 2 mps 737 mmHg 58%
    12:00 +21°C° 0 mm 2 mps 737 mmHg 54%
    13:00 +23°C° 0 mm 2 mps 736 mmHg 51%
    14:00 +24°C° 0 mm 2 mps 736 mmHg 47%
    15:00 +22°C° 0 mm 1 mps 736 mmHg 53%
    16:00 +21°C° 0 mm 1 mps 736 mmHg 60%
    17:00 +19°C° 0 mm 1 mps 735 mmHg 66%
    18:00 +18°C° 0 mm 1 mps 735 mmHg 68%
    19:00 +16°C° 0 mm 2 mps 735 mmHg 71%
    20:00 +15°C° 0 mm 2 mps 735 mmHg 73%
    21:00 +15°C° 0 mm 2 mps 735 mmHg 73%
    22:00 +15°C° 0 mm 2 mps 735 mmHg 72%
    23:00 +14°C° 0 mm 2 mps 735 mmHg 71%

    24 October, Thursday

    Time Temperature Precipitation Wind Pressure Humidity
    00:00 +14°C° 0 mm 2 mps 735 mmHg 71%
    01:00 +14°C° 0 mm 1 mps 735 mmHg 72%
    02:00 +14°C° 0 mm 1 mps 735 mmHg 72%
    03:00 +13°C° 0 mm 1 mps 735 mmHg 72%
    04:00 +13°C° 0 mm 1 mps 735 mmHg 71%
    05:00 +13°C° 0 mm 1 mps 735 mmHg 71%
    06:00 +13°C° 0 mm 1 mps 734 mmHg 70%
    07:00 +13°C° 0 mm 1 mps 734 mmHg 69%
    08:00 +14°C° 0 mm 1 mps 734 mmHg 67%
    09:00 +16°C° 0 mm 1 mps 735 mmHg 59%
    10:00 +20°C° 0 mm 1 mps 735 mmHg 52%
    11:00 +22°C° 0 mm 1 mps 735 mmHg 44%
    12:00 +23°C° 0 mm 1 mps 735 mmHg 42%
    13:00 +24°C° 0 mm 2 mps 734 mmHg 40%
    14:00 +25°C° 0 mm 2 mps 734 mmHg 39%
    15:00 +23°C° 0 mm 2 mps 734 mmHg 45%
    16:00 +20°C° 0 mm 2 mps 734 mmHg 50%
    17:00 +18°C° 0 mm 2 mps 733 mmHg 56%
    18:00 +17°C° 0 mm 2 mps 733 mmHg 59%
    19:00 +17°C° 0 mm 2 mps 733 mmHg 61%
    20:00 +16°C° 0 mm 2 mps 733 mmHg 63%
    21:00 +15°C° 0 mm 2 mps 733 mmHg 64%
    22:00 +15°C° 0 mm 2 mps 733 mmHg 64%
    23:00 +14°C° 0 mm 2 mps 733 mmHg 65%
    Show more